STARLINK-1184, 45098

Orbit data source: Space-Track

STARLINK-1184, 45098 is a payload satellite owned by SpaceX/Seattle (US) in LEO that was launched on Wed, 29 Jan 2020 UTC via an FALCON 9 launch vehicle from the Air Force Eastern Test Range (AFETR). Payload-class satellites include a variety of spacecraft equipped with specific instruments for various scientific and technological missions. These include communications satellites like Starlink; space stations such as the ISS; scientific satellites like the Hubble; Earth observation satellites from companies like Planet Labs, Umbra, and HawkEye 360; GPS; miniature CubeSats for education and research; and military/defense satellites.

Loading next visibility...
Identifier
45098, 2020-006BG
Orbit
LEO
Country
Flag of USUS
Related business
Manufacturer
SpaceX/Seattle
Mission
Partially operational Commercial Communications
Bus & Motor
STARLINK, Unknown motor
Mass
260 kg wet, ~248 kg dry
Launch date (UTC)
2020-01-29 (7 years ago)
Launch vehicle
FALCON 9
Launch site
Air Force Eastern Test Range (AFETR)
Object type
Payload
Rocket body
Debris
Shape & HBR
Box + 1 Pan, 10.1 m
Radar Cross Section
13.562 m², Large (>1 m²)

Expand to show TLE details & history
Last TLE update: 2 days ago

TLE from 2 days ago
0 STARLINK-1184
1 45098U 20006BG  26250.10362518  .00017105  00000-0  84570-3 0  9996
2 45098  53.0493 141.0028 0002531  28.6123 331.5009 15.17944598364525
Epoch: 2026-09-07T02:29Z
TLE epoch observation values (Epoch: 2026-09-07T02:29:13.215Z)
Latitude
-0.00006°
Longitude
117.5085°
Altitude
511.404 km
Speed
7.61 km/s
True Right ascension
09h 24m 00s
True Declination
0° 00' 00"
Sunlit
Object was in daylight at epoch
Visualization orbit readout
Latitude
Unknown
Longitude
Unknown
Altitude
Unknown
Speed
Unknown
Apparent Right ascension
Unknown
Apparent Declination
Unknown
Sunlit
N/A
Visualization observer readout
Local Sidereal Time
11:17:47
Azimuth
Unknown
Elevation
Unknown
Doppler factor
Unknown
Orbital elements
Apogee altitude
514.07 km
Perigee altitude
510.582 km
Semi-major axis
6,890.463 km
Eccentricity
0.00025
Inclination
53.0493°
RAAN
141.0028°
Arg. of periapsis
28.6123°
True anomaly
331.48706°
Mean anomaly
331.5009°
Eccentric anomaly
331.49398°
Mean motion
3.79464 °/min
Orbital period
94.87 mins
BSTAR
0.0008457
Loading maneuver chart data...
Computing Atmospheric mass density...

Documentation

Showing up to 5 results
|